#timestamp,LO_Frequency,Hit,StdDev 
1542135615.2,286046995.0,Y
1542135635.0,286046997.2,P
1542135635.9,286046997.2,P
1542135655.8,286046996.5,P
1542135675.6,286046996.9,Y
1542135695.4,286047001.5,P
1542135715.3,286047001.7,N
1542135735.1,286047004.1,N
1542135755.9,286047002.2,N
1542135775.7,286047000.0,N
1542135795.5,286047000.5,N
1542135815.4,286047002.4,N
1542135835.2,286047004.2,N
1542135855.0,286047002.1,N
1542135855.9,286047002.1,N
1542135875.8,286047011.9,Y
1542135895.6,286046999.3,P
1542135915.5,286046999.2,N
1542135935.3,286046999.3,N
1542135955.1,286046998.1,N
1542135975.9,286046998.8,N
1542135995.7,286047000.8,N
1542136015.5,286046996.8,N
1542136035.4,286047000.8,N
1542136055.2,286046999.3,N
1542136075.1,286046997.3,N
1542136076.0,286046997.3,N
1542136095.8,286046997.4,N
1542136115.6,286046997.3,N
1542136135.5,286046997.8,N
1542136155.3,286046995.8,N
1542136175.1,286046996.4,N
1542136195.9,286046993.5,Y
1542136215.7,286046997.6,P
1542136235.6,286046999.2,N
1542136255.4,286046997.5,P
1542136275.2,286046998.8,N
1542136295.1,286046996.9,Y
1542136296.0,286046996.9,P
1542136315.8,286046999.1,N
1542136335.7,286046997.1,P
1542136355.5,286046995.0,Y
1542136375.3,286046998.7,P
1542136395.2,286046998.5,P
1542136415.0,286047000.9,N
1542136415.9,286047000.9,N
1542136435.8,286046998.2,N
1542136455.6,286046998.5,N
1542136475.4,286047000.5,N
1542136495.3,286047000.7,N
1542136515.1,286046998.8,N
1542136535.8,286046998.7,N
1542136555.7,286046996.9,N
1542136575.5,286046998.7,N
1542136595.4,286046998.8,N
1542136615.2,286046999.1,N
1542136635.0,286046999.1,N
1542136635.9,286046999.1,N
1542136655.8,286046998.9,N
1542136675.6,286046998.9,N
1542136695.4,286046998.4,N
1542136715.3,286046999.2,N
1542136735.1,286046998.3,N
1542136755.9,286046998.7,N
1542136775.7,286047001.1,N
1542136795.5,286046999.4,N
1542136815.4,286046996.7,Y
1542136835.2,286046999.4,P
1542136855.0,286047000.8,P
1542136855.9,286047000.8,N
1542136875.8,286046999.3,N
1542136895.6,286046998.7,N
1542136915.5,286046999.5,N
1542136935.3,286046999.3,N
1542136955.1,286046998.1,N
1542136975.9,286047001.2,N
1542136995.7,286046996.5,Y
1542137015.6,286046996.8,P
1542137035.4,286046997.2,N
1542137055.2,286046999.0,N
1542137075.1,286046999.3,N
1542137076.0,286046999.3,N
1542137095.8,286046998.4,N
1542137115.6,286046998.7,N
1542137135.5,286046999.0,N
1542137155.3,286046996.5,Y
1542137175.2,286047002.8,P
1542137195.9,286047000.3,N
1542137215.7,286047001.7,N
1542137235.6,286047002.6,N
1542137255.4,286047001.9,N
1542137275.2,286047002.7,N
1542137295.1,286047002.3,N
1542137296.0,286047002.3,N
1542137315.8,286047003.5,N
1542137335.7,286047002.2,N
1542137355.5,286047002.4,N
1542137375.3,286047002.6,N
1542137395.2,286047003.9,Y
1542137415.0,286047001.7,P
1542137415.9,286047001.7,P
1542137435.7,286047003.4,P
1542137455.6,286047005.9,Y
1542137475.4,286047001.8,P
1542137495.3,286047001.7,P
1542137515.1,286047000.4,N
1542137535.8,286046999.7,N
1542137555.7,286047000.0,N
1542137575.5,286047002.8,N
1542137595.4,286047003.1,N
1542137615.2,286047003.3,N
1542137635.0,286047002.9,N
1542137635.9,286047002.9,N
1542137655.8,286047004.2,Y
1542137675.6,286047003.8,P
1542137695.5,286047004.8,P
1542137715.3,286047004.1,P
1542137735.1,286047002.9,N
1542137755.9,286047003.2,Y
1542137775.7,286047002.7,P
1542137795.5,286047000.5,N
1542137845.4,286047002.5,E
1542137855.3,286047000.4,N
1542137875.2,286046998.1,P
1542137895.0,286047001.0,N
1542137895.9,286047001.0,N
1542137915.8,286046998.5,N
1542137935.6,286047001.2,N
1542137955.4,286046998.5,N
1542137975.3,286046998.1,N
1542137995.1,286046998.9,N
1542138015.8,286046997.0,N
1542138035.7,286046998.2,N
1542138055.5,286047000.6,N
1542138075.4,286047000.7,N
1542138095.2,286047000.3,N
1542138115.0,286047004.3,Y
1542138115.9,286047004.3,P
1542138135.8,286047003.9,N
1542138155.6,286047005.7,N
1542138175.5,286047004.2,N
1542138195.3,286047004.2,N
1542138215.1,286047003.4,N
1542138235.9,286047005.4,N
1542138255.7,286047005.3,N
1542138275.5,286047005.3,Y
1542138295.4,286047000.3,P
1542138315.2,286047000.4,N
1542138335.1,286047004.1,N
1542138336.0,286047004.1,N
1542138355.8,286047001.7,N
1542138375.6,286047005.7,Y
1542138395.5,286047002.4,P
1542138415.3,286046998.6,P
1542138435.1,286046999.0,N
1542138455.9,286047000.5,N
1542138475.7,286046999.8,N
1542138495.6,286047002.2,N
1542138515.4,286047002.7,N
1542138535.2,286047003.6,N
1542138555.1,286047001.9,N
1542138556.0,286047001.9,N
1542138575.8,286047001.7,N
1542138595.7,286047003.5,N
1542138615.5,286047004.1,N
1542138635.3,286047003.0,N
1542138655.2,286047001.4,N
1542138675.0,286047004.0,N
1542138675.9,286047004.0,N
1542138695.7,286047003.1,N
1542138715.6,286047003.6,N
1542138735.4,286047005.7,Y
1542138755.3,286047004.1,P
1542138775.1,286047001.4,N
1542138776.0,286047001.4,N
1542138795.8,286047003.6,Y
1542138815.7,286047001.6,P
1542138835.5,286047003.5,P
1542138855.4,286047004.0,P
1542138875.2,286047001.9,N
1542138895.0,286047003.4,Y
1542138895.9,286047003.4,P
1542138915.8,286047003.8,P
1542138935.6,286047004.4,P
1542138955.4,286047003.2,Y
1542138975.3,286046998.5,P
1542138995.1,286047001.2,N
1542139015.9,286046998.3,N
1542139035.7,286047000.7,N
1542139055.5,286046999.9,N
1542139075.4,286046998.7,N
1542139095.2,286047000.7,N
1542139115.1,286047002.1,N
1542139116.0,286047002.1,N
1542139135.8,286047001.3,N
1542139155.6,286047002.7,N
1542139175.5,286047000.5,N
1542139195.3,286046998.1,N
